Milford, UT

12:20 AM MDT on July 24, 2017 (GMT -0600)
Milford Municipal

Weather History for KMLF - June, 2013

Change the Weather History Date:

Sunday, June 16, 2013

  Actual Average Record
Temperature  
Mean Temperature 72 °F -  
Max Temperature 90 °F 85 °F 98 °F (2002)
Min Temperature 54 °F 47 °F 39 °F (1998)
Cooling Degree Days 7    
Growing Degree Days 22 (Base 50)    
Moisture  
Dew Point 4 °F    
Average Humidity 9    
Maximum Humidity 27    
Minimum Humidity 4    
Precipitation  
Precipitation 0.00 in - - ()
Sea Level Pressure  
Sea Level Pressure 29.87 in    
Wind  
Wind Speed 12 mph (SSW)    
Max Wind Speed 25 mph    
Max Gust Speed 37 mph    
Visibility 10 miles    
Events      
Averages and records for this station are not official NWS values.
T = Trace of Precipitation, MM = Missing Value Source: NWS Daily Summary

Daily Weather History Graph

Daily Weather History Graph

Search for Another Location

Airport or City:

Trip Planner

Search our weather history database for the weather conditions in past years. The results will help you decide how hot, cold, wet, or windy it might be!

Date:

Astronomy

Jun. 16, 2013 Rise Set
Actual Time 6:07 AM MDT 8:58 PM MDT
Civil Twilight 5:35 AM MDT 9:29 PM MDT
Nautical Twilight 4:56 AM MDT 10:09 PM MDT
Astronomical Twilight 4:10 AM MDT 10:55 PM MDT
Moon 1:42 PM MDT (6/16) 1:09 AM MDT (6/16)
Length of Visible Light 15h 53m
Length of Day
14h 50m
Waxing Crescent, 50% of the Moon is Illuminated
Jun 16
Waxing Crescent
Jun 23
Full
Jun 29
Last Quarter
Jul 8
New
Jul 15
First Quarter

Hourly Weather History & Observations

Time (MDT) Temp. Dew Point Humidity Pressure Visibility Wind Dir Wind Speed Gust Speed Precip Events Conditions
12:52 AM 57.9 °F 16.0 °F 19% 29.84 in 10.0 mi SSW 9.2 mph - N/A   Clear
1:52 AM 61.0 °F 14.0 °F 16% 29.83 in 10.0 mi South 9.2 mph - N/A   Clear
2:52 AM 54.0 °F 14.0 °F 21% 29.84 in 10.0 mi SSW 10.4 mph - N/A   Clear
3:52 AM 51.1 °F 18.0 °F 27% 29.86 in 10.0 mi South 6.9 mph - N/A   Clear
4:52 AM 50.0 °F 16.0 °F 26% 29.86 in 10.0 mi SW 6.9 mph - N/A   Clear
5:52 AM 57.0 °F 17.1 °F 21% 29.86 in 10.0 mi SSW 10.4 mph - N/A   Clear
6:52 AM 54.0 °F 18.0 °F 24% 29.89 in 10.0 mi South 6.9 mph - N/A   Clear
7:52 AM 64.9 °F 19.0 °F 17% 29.88 in 10.0 mi SSW 9.2 mph - N/A   Clear
8:52 AM 72.0 °F 17.1 °F 12% 29.89 in 10.0 mi SSW 10.4 mph - N/A   Clear
9:52 AM 78.1 °F 14.0 °F 9% 29.89 in 10.0 mi SSW 15.0 mph - N/A   Clear
10:52 AM 82.0 °F 1.9 °F 5% 29.91 in 10.0 mi SSW 21.9 mph 27.6 mph N/A   Clear
11:52 AM 84.0 °F -2.0 °F 4% 29.90 in 10.0 mi SW 16.1 mph 27.6 mph N/A   Clear
12:52 PM 84.9 °F -4.0 °F 4% 29.90 in 10.0 mi SSW 16.1 mph 21.9 mph N/A   Clear
1:24 PM 87.8 °F -9.4 °F 4% 30.08 in 10.0 mi SW 19.6 mph 32.2 mph N/A   Clear
1:52 PM 87.1 °F -13.0 °F 4% 29.88 in 10.0 mi SW 23.0 mph 27.6 mph N/A   Clear
2:52 PM 88.0 °F -11.0 °F 4% 29.88 in 10.0 mi SW 20.7 mph 32.2 mph N/A   Clear
3:52 PM 90.0 °F -5.1 °F 4% 29.87 in 10.0 mi WSW 18.4 mph 35.7 mph N/A   Clear
4:52 PM 89.1 °F -2.9 °F 4% 29.86 in 10.0 mi SW 25.3 mph 36.8 mph N/A   Clear
5:52 PM 88.0 °F -8.0 °F 4% 29.84 in 10.0 mi SW 17.3 mph 31.1 mph N/A   Clear
6:52 PM 86.0 °F -9.9 °F 4% 29.84 in 10.0 mi SSW 15.0 mph 27.6 mph N/A   Clear
7:52 PM 84.0 °F -9.9 °F 4% 29.82 in 10.0 mi SSW 17.3 mph - N/A   Clear
8:52 PM 77.0 °F -2.9 °F 4% 29.83 in 10.0 mi SSW 11.5 mph - N/A   Clear
9:52 PM 70.0 °F -0.9 °F 6% 29.85 in 10.0 mi SSW 10.4 mph - N/A   Clear
10:52 PM 64.9 °F 9.0 °F 11% 29.86 in 10.0 mi South 8.1 mph - N/A   Clear
11:52 PM 66.9 °F 3.9 °F 8% 29.86 in 10.0 mi South 12.7 mph - N/A   Clear